CSN82 ZUCK-ZBAA

Flight info

Callsign CSN82
Flight time N/A
Altitude 33100
Route OVNUL1Z OVNUL W677 IGIRO W4 VADMO W56 DUGEB DUGEB5D
Aircraft B77W/H-SDE1E2E3FGHIJ2J3J4J5M1RWXY/LB1D1

Departure

Time 2026-05-06 21:33
Airport Chongqing Jiangbei International Airport (ZUCK)

Arrival

Time N/A
Airport Beijing Capital International Airport (ZBAA)
Time Latitude Longitude Altitude Speed Heading
2026-05-06 20:31 29.72829 106.65775 1377 ft 0 kts 32°
2026-05-06 21:14 29.72822 106.65770 1377 ft 3 kts 31°
2026-05-06 21:14 29.72799 106.65755 1377 ft 3 kts 27°
2026-05-06 21:15 29.72775 106.65744 1377 ft 3 kts 13°
2026-05-06 21:15 29.72752 106.65743 1377 ft 3 kts 348°
2026-05-06 21:15 29.72730 106.65752 1377 ft 3 kts 332°
2026-05-06 21:15 29.72726 106.65755 1377 ft 0 kts 332°
2026-05-06 21:24 29.72734 106.65750 1377 ft 4 kts 331°
2026-05-06 21:25 29.72769 106.65704 1377 ft 10 kts 277°
2026-05-06 21:25 29.72749 106.65629 1377 ft 9 kts 244°
2026-05-06 21:25 29.72723 106.65567 1377 ft 7 kts 244°
2026-05-06 21:25 29.72696 106.65509 1377 ft 9 kts 231°
2026-05-06 21:26 29.72637 106.65489 1377 ft 8 kts 151°
2026-05-06 21:26 29.72605 106.65565 1377 ft 14 kts 107°
2026-05-06 21:26 29.72570 106.65698 1377 ft 20 kts 107°
2026-05-06 21:26 29.72526 106.65861 1377 ft 20 kts 107°
2026-05-06 21:27 29.72489 106.66003 1377 ft 17 kts 107°
2026-05-06 21:27 29.72460 106.66113 1377 ft 9 kts 106°
2026-05-06 21:27 29.72428 106.66174 1377 ft 9 kts 162°
2026-05-06 21:27 29.72345 106.66152 1377 ft 14 kts 199°
2026-05-06 21:28 29.72245 106.66117 1377 ft 16 kts 196°
2026-05-06 21:28 29.72130 106.66077 1377 ft 18 kts 197°
2026-05-06 21:28 29.72000 106.66032 1377 ft 20 kts 197°
2026-05-06 21:28 29.71858 106.65982 1377 ft 21 kts 197°
2026-05-06 21:29 29.71711 106.65933 1377 ft 14 kts 197°
2026-05-06 21:29 29.71678 106.65921 1377 ft 6 kts 198°
2026-05-06 21:29 29.71627 106.65903 1377 ft 6 kts 198°
2026-05-06 21:29 29.71586 106.65888 1377 ft 6 kts 197°
2026-05-06 21:30 29.71537 106.65878 1377 ft 5 kts 170°
2026-05-06 21:30 29.71504 106.65917 1377 ft 8 kts 109°
2026-05-06 21:30 29.71489 106.65974 1377 ft 0 kts 107°
2026-05-06 21:31 29.71488 106.65977 1377 ft 1 kts 107°
2026-05-06 21:31 29.71481 106.66007 1377 ft 7 kts 106°
2026-05-06 21:31 29.71463 106.66074 1377 ft 8 kts 107°
2026-05-06 21:31 29.71457 106.66137 1377 ft 7 kts 69°
2026-05-06 21:32 29.71503 106.66173 1377 ft 8 kts 15°
2026-05-06 21:32 29.72032 106.66354 1377 ft 98 kts 17°
2026-05-06 21:32 29.72892 106.66650 1378 ft 157 kts 16°
2026-05-06 21:33 29.74066 106.67085 1583 ft 187 kts 16°
2026-05-06 21:33 29.75315 106.67562 2164 ft 196 kts 15°
2026-05-06 21:33 29.76603 106.68008 2971 ft 201 kts 15°
2026-05-06 21:33 29.78049 106.68682 2968 ft 244 kts 28°
2026-05-06 21:34 29.79546 106.69798 3284 ft 268 kts 34°
2026-05-06 21:34 29.81029 106.71028 4317 ft 261 kts 33°
2026-05-06 21:34 29.82508 106.72174 5243 ft 258 kts 31°
2026-05-06 21:34 29.84025 106.73277 6016 ft 260 kts 30°
2026-05-06 21:35 29.85545 106.74363 6821 ft 260 kts 30°
2026-05-06 21:35 29.87106 106.75473 7504 ft 265 kts 31°
2026-05-06 21:35 29.88674 106.76611 8164 ft 270 kts 32°
2026-05-06 21:35 29.90276 106.77782 8810 ft 274 kts 32°
2026-05-06 21:36 29.91866 106.78941 9479 ft 277 kts 33°
2026-05-06 21:36 29.93512 106.80143 10117 ft 282 kts 32°
2026-05-06 21:36 29.95204 106.81377 10490 ft 298 kts 33°
2026-05-06 21:36 29.97017 106.82700 10811 ft 316 kts 33°
2026-05-06 21:37 29.98937 106.84101 11169 ft 333 kts 33°
2026-05-06 21:37 30.00922 106.85550 11535 ft 350 kts 33°
2026-05-06 21:37 30.03049 106.87104 11910 ft 366 kts 33°
2026-05-06 21:37 30.05236 106.88693 12291 ft 382 kts 32°
2026-05-06 21:38 30.07534 106.90331 12781 ft 393 kts 32°
2026-05-06 21:38 30.09892 106.92012 13449 ft 400 kts 32°
2026-05-06 21:38 30.12269 106.93708 14133 ft 406 kts 32°
2026-05-06 21:38 30.14724 106.95338 14741 ft 414 kts 26°
2026-05-06 21:39 30.17443 106.96515 15381 ft 421 kts 15°
2026-05-06 21:39 30.20318 106.97162 16075 ft 425 kts
2026-05-06 21:39 30.23256 106.97636 16779 ft 430 kts
2026-05-06 21:39 30.26263 106.98113 17404 ft 436 kts
2026-05-06 21:40 30.29282 106.98595 18041 ft 442 kts
2026-05-06 21:40 30.32320 106.99083 18761 ft 444 kts
2026-05-06 21:40 30.35403 106.99580 19424 ft 448 kts
2026-05-06 21:40 30.38465 107.00076 20023 ft 453 kts
2026-05-06 21:41 30.41609 107.00586 20644 ft 456 kts
2026-05-06 21:41 30.44745 107.01096 21322 ft 458 kts
2026-05-06 21:41 30.47909 107.01611 21922 ft 462 kts
2026-05-06 21:41 30.51122 107.02135 22453 ft 467 kts
2026-05-06 21:42 30.54318 107.02846 22998 ft 475 kts 12°
2026-05-06 21:42 30.57466 107.04163 23559 ft 483 kts 21°
2026-05-06 21:42 30.60429 107.06058 24072 ft 492 kts 31°
2026-05-06 21:42 30.63232 107.08338 24647 ft 496 kts 33°
2026-05-06 21:43 30.66040 107.10696 25213 ft 500 kts 33°
2026-05-06 21:43 30.68874 107.13077 25750 ft 504 kts 33°
2026-05-06 21:43 30.71700 107.15449 26327 ft 507 kts 33°
2026-05-06 21:43 30.74586 107.17871 26919 ft 510 kts 33°
2026-05-06 21:44 30.77448 107.20271 27440 ft 513 kts 33°
2026-05-06 21:44 30.80336 107.22694 27919 ft 518 kts 33°
2026-05-06 21:44 30.83281 107.25165 28495 ft 520 kts 33°
2026-05-06 21:44 30.86229 107.27639 29050 ft 523 kts 33°
2026-05-06 21:45 30.89170 107.30109 29570 ft 526 kts 33°
2026-05-06 21:45 30.92132 107.32597 30051 ft 530 kts 32°
2026-05-06 21:45 30.95135 107.35122 30578 ft 532 kts 32°
2026-05-06 21:45 30.98312 107.37795 31259 ft 532 kts 32°
2026-05-06 21:46 31.01291 107.40304 31824 ft 532 kts 32°
2026-05-06 21:46 31.04315 107.42799 32323 ft 532 kts 28°
2026-05-06 21:46 31.07508 107.44981 32711 ft 532 kts 25°
2026-05-06 21:46 31.10825 107.47121 33057 ft 535 kts 24°
2026-05-06 21:47 31.18176 107.51856 33076 ft 531 kts 24°
2026-05-06 21:47 31.25553 107.56621 33081 ft 528 kts 24°
2026-05-06 21:48 31.32944 107.61409 33098 ft 526 kts 24°
2026-05-06 21:48 31.39568 107.65710 33100 ft 527 kts 25°
2026-05-06 21:49 31.46581 107.70273 33109 ft 526 kts 25°
2026-05-06 21:49 31.52955 107.74428 33120 ft 522 kts 25°
2026-05-06 21:50 31.59307 107.78575 33130 ft 520 kts 25°
2026-05-06 21:50 31.65345 107.83221 33127 ft 526 kts 36°
2026-05-06 21:51 31.71020 107.88694 33119 ft 523 kts 36°
2026-05-06 21:51 31.76636 107.94142 33115 ft 525 kts 36°
2026-05-06 21:52 31.82216 107.99564 33130 ft 521 kts 36°
2026-05-06 21:52 31.87843 108.05035 33146 ft 525 kts 36°
2026-05-06 21:53 31.93422 108.10470 33163 ft 522 kts 36°
2026-05-06 21:53 31.99026 108.15936 33181 ft 520 kts 36°
2026-05-06 21:54 32.04582 108.21375 33185 ft 518 kts 37°
2026-05-06 21:54 32.09305 108.27801 33210 ft 528 kts 55°
2026-05-06 21:55 32.12381 108.35654 33218 ft 531 kts 69°
2026-05-06 21:55 32.14759 108.43883 33262 ft 533 kts 70°
2026-05-06 21:56 32.17133 108.52165 33288 ft 529 kts 70°
2026-05-06 21:56 32.19493 108.60375 33291 ft 532 kts 67°
2026-05-06 21:57 32.22968 108.67954 33278 ft 528 kts 50°
2026-05-06 21:57 32.28050 108.74046 33264 ft 517 kts 33°
2026-05-06 21:58 32.34116 108.78624 33256 ft 514 kts 27°
2026-05-06 21:58 32.41098 108.83605 33258 ft 514 kts 27°
2026-05-06 21:59 32.48300 108.88764 33250 ft 514 kts 27°
2026-05-06 21:59 32.55447 108.93901 33238 ft 515 kts 27°
2026-05-06 22:00 32.62673 108.99107 33252 ft 513 kts 27°
2026-05-06 22:00 32.69817 109.04266 33245 ft 513 kts 27°
2026-05-06 22:01 32.76114 109.08820 33240 ft 513 kts 27°
2026-05-06 22:01 32.82198 109.13230 33241 ft 514 kts 27°
2026-05-06 22:02 32.88737 109.17976 33245 ft 517 kts 27°
2026-05-06 22:02 32.94839 109.22415 33251 ft 514 kts 27°
2026-05-06 22:03 33.00985 109.26891 33258 ft 517 kts 27°
2026-05-06 22:03 33.07053 109.31322 33264 ft 513 kts 27°
2026-05-06 22:04 33.13177 109.35798 33267 ft 514 kts 27°
2026-05-06 22:04 33.19273 109.40263 33284 ft 516 kts 27°
2026-05-06 22:05 33.25398 109.44755 33300 ft 515 kts 27°
2026-05-06 22:05 33.31511 109.49254 33294 ft 516 kts 28°
2026-05-06 22:06 33.36956 109.54898 33292 ft 528 kts 46°
2026-05-06 22:06 33.40904 109.62300 33278 ft 534 kts 63°
2026-05-06 22:07 33.42950 109.70856 33255 ft 538 kts 82°
2026-05-06 22:07 33.43800 109.79748 33251 ft 541 kts 83°
2026-05-06 22:08 33.44630 109.88747 33246 ft 542 kts 83°
2026-05-06 22:08 33.45467 109.97715 33245 ft 542 kts 83°
2026-05-06 22:09 33.46302 110.06634 33244 ft 542 kts 82°
2026-05-06 22:09 33.47139 110.15573 33240 ft 541 kts 82°
2026-05-06 22:10 33.47970 110.24492 33237 ft 540 kts 83°
2026-05-06 22:10 33.48918 110.34180 33230 ft 543 kts 78°
2026-05-06 22:11 33.51181 110.42663 33237 ft 536 kts 61°
2026-05-06 22:11 33.55272 110.50006 33230 ft 526 kts 43°
2026-05-06 22:12 33.61422 110.56035 33240 ft 516 kts 24°
2026-05-06 22:12 33.68100 110.60024 33255 ft 511 kts 19°
2026-05-06 22:13 33.74497 110.63686 33268 ft 508 kts 19°
2026-05-06 22:13 33.81487 110.67694 33255 ft 514 kts 19°
2026-05-06 22:14 33.88203 110.71557 33243 ft 510 kts 19°
2026-05-06 22:14 33.94696 110.75297 33239 ft 514 kts 20°
2026-05-06 22:15 34.01134 110.79014 33233 ft 512 kts 19°
2026-05-06 22:15 34.07544 110.82721 33231 ft 512 kts 19°
2026-05-06 22:16 34.14003 110.86462 33242 ft 514 kts 19°
2026-05-06 22:16 34.20483 110.90222 33241 ft 512 kts 19°
2026-05-06 22:17 34.26962 110.93986 33258 ft 518 kts 19°
2026-05-06 22:17 34.33418 110.97748 33258 ft 513 kts 19°
2026-05-06 22:18 34.39734 111.01846 33252 ft 523 kts 30°
2026-05-06 22:18 34.45134 111.07973 33250 ft 537 kts 48°
2026-05-06 22:19 34.49277 111.15617 33268 ft 543 kts 56°
2026-05-06 22:19 34.53200 111.23393 33273 ft 544 kts 55°
2026-05-06 22:20 34.57163 111.31252 33273 ft 542 kts 55°
2026-05-06 22:20 34.61097 111.39062 33257 ft 544 kts 55°
2026-05-06 22:21 34.65025 111.46873 33241 ft 541 kts 54°
2026-05-06 22:21 34.68934 111.54659 33241 ft 547 kts 55°
2026-05-06 22:22 34.72870 111.62517 33238 ft 543 kts 55°
2026-05-06 22:22 34.76820 111.70416 33217 ft 550 kts 55°
2026-05-06 22:23 34.80751 111.78301 33205 ft 545 kts 55°
2026-05-06 22:23 34.84695 111.86225 33210 ft 546 kts 55°
2026-05-06 22:24 34.88652 111.94177 33213 ft 551 kts 54°
2026-05-06 22:24 34.92635 112.02090 33210 ft 547 kts 54°
2026-05-06 22:25 34.96593 112.09965 33212 ft 549 kts 54°
2026-05-06 22:25 35.00546 112.17853 33194 ft 548 kts 54°
2026-05-06 22:26 35.04496 112.25751 33194 ft 547 kts 54°
2026-05-06 22:26 35.08468 112.33717 33213 ft 548 kts 54°
2026-05-06 22:27 35.12415 112.41648 33220 ft 546 kts 54°
2026-05-06 22:27 35.16371 112.49618 33223 ft 548 kts 54°
2026-05-06 22:28 35.20272 112.57496 33234 ft 546 kts 54°
2026-05-06 22:28 35.24349 112.65636 33237 ft 546 kts 54°
2026-05-06 22:29 35.28332 112.73566 33225 ft 547 kts 54°
2026-05-06 22:29 35.32274 112.81438 33227 ft 547 kts 54°
2026-05-06 22:30 35.36237 112.89374 33228 ft 548 kts 54°
2026-05-06 22:30 35.40250 112.97431 33217 ft 544 kts 54°
2026-05-06 22:31 35.44183 113.05343 33231 ft 548 kts 54°
2026-05-06 22:31 35.48164 113.13372 33233 ft 546 kts 54°
2026-05-06 22:32 35.52392 113.21918 33248 ft 552 kts 54°
2026-05-06 22:32 35.56600 113.30450 33255 ft 549 kts 54°
2026-05-06 22:33 35.60523 113.38421 33259 ft 551 kts 54°
2026-05-06 22:33 35.64523 113.46403 33265 ft 548 kts 53°
2026-05-06 22:34 35.68676 113.54589 33268 ft 552 kts 52°
2026-05-06 22:34 35.72900 113.62950 33251 ft 548 kts 53°
2026-05-06 22:35 35.76981 113.71045 33236 ft 555 kts 53°
2026-05-06 22:35 35.81067 113.79179 33233 ft 551 kts 53°
2026-05-06 22:36 35.85099 113.87221 33232 ft 557 kts 53°
2026-05-06 22:36 35.89149 113.95323 33236 ft 556 kts 53°
2026-05-06 22:37 35.93193 114.03434 33235 ft 554 kts 53°
2026-05-06 22:37 35.97308 114.11703 33234 ft 558 kts 53°
2026-05-06 22:38 36.01346 114.19839 33238 ft 560 kts 53°
2026-05-06 22:38 36.05550 114.28330 33239 ft 558 kts 53°
2026-05-06 22:39 36.09678 114.36685 33230 ft 560 kts 53°
2026-05-06 22:39 36.14168 114.45802 33231 ft 561 kts 53°
2026-05-06 22:40 36.18745 114.55119 33230 ft 561 kts 53°
2026-05-06 22:40 36.23415 114.63652 33222 ft 553 kts 41°
2026-05-06 22:41 36.29355 114.70032 33208 ft 533 kts 24°
2026-05-06 22:41 36.33014 114.72496 33212 ft 523 kts 17°
2026-05-06 22:42 36.39597 114.76309 33209 ft 519 kts 15°